Regional Weather Roundup
Issued by NWS

Home | Current Version | Previous Version | Graphics & Text | Print | Product List | Glossary On
Versions: 1 2 3 4 5 6 7 8 9 10 11 12 13 14 15 16 17 18 19 20 21 22 23 24 25 26 27 28 29 30 31 32 33 34 35 36 37 38 39 40 41 42 43 44 45 46 47 48 49 50
000
ASUS43 KDTX 301510
RWRMI
MICHIGAN HOURLY REGIONAL WEATHER ROUNDUP
NATIONAL WEATHER SERVICE DETROIT/PONTIAC MI
1000 AM EST FRI JAN 30 2015

NOTE: "FAIR" INDICATES FEW OR NO CLOUDS BELOW 12,000 FEET WITH NO
SIGNIFICANT WEATHER AND/OR OBSTRUCTION TO VISIBILITY.

MIZ047>049-052>055-059>063-066>070-074>076-081>083-301600-
SOUTHEAST LOWER MICHIGAN

CITY           SKY/WX    TMP DP  RH WIND       PRES   REMARKS
ADRIAN         MOSUNNY   19   7  59 N15G23    30.42R WCI   5
ALMA           CLOUDY    17   6  62 N14G20    30.46R WCI   3
ANN ARBOR      PTSUNNY   16   5  62 N20G25    30.41R WCI  -1
BAD AXE        CLOUDY    10   5  80 NW21      30.39R HAZE    WCI -10
CARO           SUNNY     10   0  63 N13       30.43R WCI  -5
DETROIT CITY   MOSUNNY   16   2  54 N15G26    30.40R WCI   1
DETROIT        PTSUNNY   21  14  73 NW12      30.41R WCI  10
FLINT          MOSUNNY   14   1  56 N20G30    30.43R WCI  -3
GROSSE ILE     SUNNY     16   3  57 N16G24    30.40R WCI   0
HILLSDALE      PTSUNNY   19   7  60 N12       30.39R WCI   6
HOWELL         PTSUNNY   13   4  66 NW13G24   30.41R WCI  -2

CITY           SKY/WX    TMP DP  RH WIND       PRES   REMARKS
JACKSON        CLOUDY    17   6  62 N13G21    30.42R WCI   4
LAMBERTVILLE   MOSUNNY   19   9  63 N15G23    30.43R WCI   5
LANSING        CLOUDY    17   6  62 N13G22    30.44R WCI   4
LAPEER         CLOUDY    11   3  70 N13       30.40S WCI  -4
MASON          CLOUDY    16   6  64 N15       30.43R WCI   1
MONROE         PTSUNNY   18   7  62 N15G22    30.41R WCI   3
MT. CLEMENS    MOSUNNY   13   2  62 NW20      30.37R WCI  -5
PONTIAC        PTSUNNY   12   3  67 N20G28    30.37R WCI  -6
PORT HOPE        N/A     15   7  70 NW12G21   30.38R WCI   2
PORT HURON     CLOUDY    12   5  73 NW14G24   30.37R WCI  -3
TRI CITIES     MOSUNNY   14   2  58 N10       30.46R WCI   1
TROY           MOSUNNY   15   4  60 NW16G23   30.42R WCI   0
SAGINAW HB     SUNNY     14   3  62 N15       30.45R WCI  -1
$$
MIZ043>046-050>051-056>058-064>065-071>073-077>080-301600-
SOUTHWEST LOWER MICHIGAN

CITY           SKY/WX    TMP DP  RH WIND       PRES   REMARKS
BATTLE CREEK   CLOUDY    21   7  54 N13       30.44R WCI   9
BENTON HARBOR  LGT SNOW  22  17  81 NE8G18    30.48R WCI  12
BIG RAPIDS     CLOUDY    18   9  70 N10G16    30.42R WCI   6
COLDWATER      CLOUDY    20   8  58 N10G16    30.43R WCI   9
FREMONT        CLOUDY    19   8  62 N13       30.46R WCI   5
HOLLAND        FLURRIES  21  10  62 N8        30.48R WCI  11
GRAND RAPIDS   CLOUDY    20   7  57 NW13      30.46R WCI   7
IONIA          CLOUDY    19   9  63 N12       30.44R WCI   7
KALAMAZOO      CLOUDY    20  10  65 N9        30.46R WCI   9
LUDINGTON      CLOUDY    21  11  66 N14       30.48R WCI   8
MARSHALL       CLOUDY    19   7  60 NW10G17   30.42R WCI   7
MOUNT PLEASANT CLOUDY    16   4  61 N8        30.45R WCI   5
MUSKEGON       FLURRIES  21   9  59 N12       30.49R WCI   9
SOUTH HAVEN    CLOUDY    22  12  63 NE10      30.48R WCI  12
$$
MIZ016>042-301600-
NORTHERN LOWER MICHIGAN

CITY           SKY/WX    TMP DP  RH WIND       PRES   REMARKS
ALPENA         MOSUNNY    5  -1  76 N16       30.44S WCI -14
BEAVER ISLAND  LGT SNOW  10   6  83 CALM      30.46R
CADILLAC       CLOUDY    12   6  76 N8        30.38R WCI   1
CHARLEVOIX     CLOUDY     8   2  76 E6        30.49R WCI  -2
FRANKFORT      CLOUDY    18  10  69 N6        30.47R WCI  10
GAYLORD        CLOUDY     4  -1  80 N5        30.39R WCI  -5
GRAYLING       CLOUDY     8   0  70 N5        30.42R WCI   0
HARBOR SPRINGS CLOUDY     5  -2  71 NE9       30.46R WCI  -9
HOUGHTON LAKE  CLOUDY    10   1  67 N9        30.41R WCI  -3
MANISTEE       CLOUDY    19   7  58 NE7       30.47R WCI  10
OSCODA         MOSUNNY    8  -1  67 NW16G24   30.43R WCI -10
PELLSTON       CLOUDY     4  -4  69 NE7       30.47R WCI  -8
ROGERS CITY    PTSUNNY    7   3  83 N13       30.46R WCI  -9
TRAVERSE CITY  CLOUDY    15   8  73 NE8       30.45R WCI   4
$$
MIZ007>008-015-301600-
EASTERN UPPER MICHIGAN

CITY           SKY/WX    TMP DP  RH WIND       PRES   REMARKS
KINROSS        CLOUDY    -2  -9  71 NE6       30.46R WCI -14
MACKINAC ISLAN MOSUNNY    2  -7  66 NE10      30.46R WCI -13
NEWBERRY       LGT SNOW   3   0  87 E3        30.44R
S. S. MARIE    PTSUNNY   -1 -11  62 CALM      30.46R
MUNISING         N/A     16   8  71 NW10      30.46R WCI   4
$$
MIZ004>006-011>014-085-301600-
CENTRAL UPPER MICHIGAN

CITY           SKY/WX    TMP DP  RH WIND       PRES   REMARKS
MANISTIQUE     LGT SNOW  14  10  83 NW3       30.46R
ESCANABA       CLOUDY    10   0  61 NW9       30.50R WCI  -2
MENOMINEE      MOSUNNY   12   1  62 N8        30.51R WCI   1
SAWYER-GWINN   CLOUDY     9   1  72 NW8       30.42S WCI  -4
$$
MIZ001>003-009>011-084-301600-
WESTERN UPPER MICHIGAN

CITY           SKY/WX    TMP DP  RH WIND       PRES   REMARKS
IRON MOUNTAIN  CLOUDY    10   0  63 NW6       30.46R WCI   0
HOUGHTON       LGT SNOW   9   2  73 NW7       30.43S WCI  -2
COPPER HARBOR    N/A     12   3  67 N12       30.47R WCI  -2
IRONWOOD       CLOUDY    10   5  79 SW8       30.42S WCI  -1
$$

ABBREVIATIONS USED IN REMARKS
   TC - TEMPERATURE IN CELSIUS
  WCI - WIND CHILL INDEX
   HX - HEAT INDEX
  VSB - VISIBILITY




USA.gov is the U.S. government's official web portal to all federal, state and local government web resources and services.